Regional Weather Roundup
Issued by NWS

Home | Current Version | Previous Version | Graphics & Text | Print | Product List | Glossary On
Versions: 1 2 3 4 5 6 7 8 9 10 11 12 13 14 15 16 17 18 19 20 21 22 23 24 25 26 27 28 29 30 31 32 33 34 35 36 37 38 39 40 41 42 43 44 45 46 47 48 49 50
000
ASUS43 KBIS 221710
RWRND

NORTH DAKOTA REGIONAL WEATHER ROUNDUP
NATIONAL WEATHER SERVICE BISMARCK ND
1200 PM CDT WED OCT 22 2014

NOTE: "FAIR" INDICATES FEW OR NO CLOUDS BELOW 12,000 FEET WITH NO
SIGNIFICANT WEATHER AND/OR OBSTRUCTIONS TO VISIBILITY.


NDZ001>003-009>011-017-221800-
NORTHWEST NORTH DAKOTA

CITY           SKY/WX    TMP DP  RH WIND       PRES   REMARKS
WILLISTON      SUNNY     58  41  53 W16G28    29.80F
MINOT          CLOUDY    55  42  61 SW14G23   29.77R
MINOT AFB      CLOUDY    56  45  66 W18       29.75R
$$

NDZ018>021-031>035-040>046-221800-
SOUTHWEST NORTH DAKOTA

CITY           SKY/WX    TMP DP  RH WIND       PRES   REMARKS
BISMARCK       CLOUDY    58  45  62 W13       29.86S
DICKINSON      MOSUNNY   57  38  48 W25G31    29.85F
GARRISON         N/A     57  43  59 W18G25    29.80F
HETTINGER ARPT PTSUNNY   57  36  45 W23G29    29.92F
$$

NDZ004>008-012>016-024-026-027-054-221800-
NORTHEAST NORTH DAKOTA

CITY           SKY/WX    TMP DP  RH WIND       PRES   REMARKS
GRAND FORKS    PTSUNNY   61  45  55 S23G36    29.81F
GRND FRKS AFB  CLOUDY    60  47  60 S17       29.80F
DEVILS LAKE    PTSUNNY   57  45  62 SW12      29.76F
$$

NDZ022-023-025-028>030-036>039-047>053-221800-
SOUTHEAST NORTH DAKOTA

CITY           SKY/WX    TMP DP  RH WIND       PRES   REMARKS
FARGO          SUNNY     60  44  55 S21G32    29.87R
JAMESTOWN      CLOUDY    59  48  67 NW7       29.81F
$$




USA.gov is the U.S. government's official web portal to all federal, state and local government web resources and services.